Wind_Speed
30 31 36 30 28 28 28 26 26 29 31 31 31 30 32 35 41 35 37 44 43 39 36 35 35 36 36 35 36 39 42 44 47 48 48 49 47 47 47 44 42 38 37 36 38 40 41 44 47
35 33 37 33 32 31 29 28 28 24 28 31 32 32 34 35 39 39 38 40 38 32 28 28 30 31 28 30 32 37 40 43 47 49 54 53 52 52 53 46 41 36 34 34 38 39 39 42 44
36 38 35 31 32 29 23 21 23 27 26 28 34 36 38 40 38 36 34 30 29 29 27 26 27 27 28 28 28 32 32 35 37 42 42 41 42 44 44 42 38 36 33 34 33 34 37 39 41
35 36 36 32 29 25 24 25 25 30 27 30 33 35 37 39 34 34 31 28 26 27 28 28 27 28 31 31 30 31 31 32 32 33 37 38 40 42 42 40 39 35 35 35 36 38 35 37 36
31 33 34 34 32 29 26 30 30 26 31 27 30 30 32 35 34 30 28 29 33 33 29 29 29 28 32 35 35 36 35 33 31 31 33 35 37 40 39 39 38 36 36 37 37 34 34 32 30
22 29 30 35 34 27 31 27 27 30 30 31 33 33 35 32 30 30 30 32 38 32 34 36 38 40 41 43 40 38 38 37 38 36 34 33 34 36 39 39 38 37 37 36 36 34 33 32 30
25 28 32 35 33 27 27 28 26 30 34 34 33 34 34 35 36 31 35 40 45 45 44 48 46 43 46 45 43 40 40 42 39 37 38 39 38 37 37 40 40 40 39 38 40 36 35 33 32
20 22 25 21 23 21 25 25 32 30 31 33 35 38 37 36 33 39 42 43 43 43 48 51 49 50 44 47 43 43 42 42 43 41 41 37 36 41 43 44 44 43 42 42 42 41 38 37 34
25 29 28 27 24 25 24 27 27 29 31 36 38 37 37 39 42 45 47 48 46 46 47 50 54 51 50 48 48 48 48 47 44 44 43 42 42 39 39 42 44 44 44 44 44 43 43 41 40
29 28 27 23 23 24 26 28 30 30 31 32 34 39 43 44 46 46 47 50 52 52 53 55 51 51 48 50 49 52 50 48 46 44 45 46 44 43 42 41 41 41 44 45 44 44 45 45 44
23 23 28 24 26 24 27 27 31 32 35 38 36 39 39 41 44 46 46 52 53 55 51 48 49 48 49 51 50 51 52 48 44 41 43 44 43 40 46 45 43 43 44 45 46 46 47 48 48
20 20 21 21 25 25 28 27 26 21 24 29 30 38 43 47 50 53 51 48 47 51 53 51 42 44 47 49 48 49 49 48 45 47 43 42 45 40 46 48 47 46 46 47 46 48 49 49 48
24 21 17 15 20 23 27 27 31 31 33 37 42 44 45 44 43 40 42 48 48 48 47 43 37 40 42 42 47 50 50 50 51 49 48 44 42 44 47 50 50 50 50 52 53 55 55 55 55
23 24 25 27 28 32 33 34 36 40 39 39 44 41 38 38 39 41 47 51 56 53 46 41 36 36 36 35 33 36 44 46 49 53 53 51 51 51 51 55 55 56 58 58 59 59 59 58 57
21 26 28 28 28 31 35 36 39 41 41 42 44 44 43 43 43 46 52 50 55 56 59 55 50 38 36 32 34 41 42 44 46 46 46 55 53 57 57 57 59 61 63 62 62 65 64 62 62
25 31 36 34 31 29 31 33 35 39 41 43 46 49 50 48 48 50 52 56 59 59 61 57 52 45 41 44 39 44 45 43 48 47 51 50 53 61 63 67 65 64 65 63 64 67 68 69 70
33 34 34 37 33 30 31 31 36 39 40 46 49 54 49 47 50 53 54 56 59 60 63 64 60 57 51 49 47 57 52 56 45 45 50 52 56 57 56 60 68 73 72 71 70 68 68 71 74
39 37 31 35 37 31 33 34 38 42 44 50 52 56 52 48 54 60 61 62 63 65 67 63 65 65 62 56 56 55 57 58 59 68 63 63 69 65 63 64 65 69 74 74 73 76 78 76 76
33 32 32 36 41 39 41 40 43 52 53 56 54 53 58 54 61 65 66 66 69 69 67 70 68 69 65 68 64 65 62 64 70 72 67 66 62 62 67 68 66 69 73 74 73 75 76 77 79
39 36 41 42 48 51 49 47 50 54 58 62 64 64 67 65 70 73 72 73 71 78 81 81 78 69 66 65 69 66 70 72 75 74 73 80 72 64 70 67 68 70 73 74 75 74 74 76 73
46 48 49 46 50 52 53 50 55 65 71 71 69 69 70 69 72 76 78 75 79 85 87 85 82 77 71 67 70 72 78 79 80 79 77 85 77 71 74 73 71 71 73 70 72 75 75 75 76
57 55 59 62 58 54 56 57 57 58 65 73 77 75 75 75 80 81 82 81 86 87 89 88 86 84 77 70 74 76 80 84 92 93 84 86 72 73 77 76 81 75 73 74 75 77 81 80 84
62 66 65 60 62 65 67 65 57 57 68 72 76 79 82 83 88 88 88 88 90 91 90 92 87 82 75 75 77 82 85 95 95 89 80 73 77 78 75 81 79 75 75 75 81 83 82 88 91
67 71 73 73 75 75 76 76 64 72 76 80 82 84 86 87 84 89 93 93 95 97 94 91 85 80 81 84 88 89 94 82 82 85 70 79 64 79 86 84 81 83 87 99 90 84 88 91 92
71 72 71 67 70 71 72 72 70 74 78 84 85 85 90 91 93 93 95 94 97 95 93 86 86 89 93 97 95 102 98 96 77 84 90 90 87 92 94 95 89 91 95 99 100 96 98 99 107
83 77 79 79 79 79 78 76 77 83 87 92 92 92 92 92 95 99 102 100 98 94 87 85 96 99 100 103 107 109 104 100 83 82 98 92 95 99 103 107 102 103 96 94 101 103 99 98 105
86 85 89 95 89 87 84 86 87 85 91 94 92 93 96 96 105 105 102 97 92 95 98 101 101 105 109 108 112 106 99 88 80 78 88 92 93 91 89 96 98 100 97 99 96 96 100 104 111
89 90 96 102 99 98 93 89 96 93 104 101 98 107 105 103 101 102 99 98 105 105 106 103 104 109 110 106 99 94 94 78 79 81 86 87 89 94 102 102 99 97 98 100 104 108 110 117 120
92 93 98 100 102 103 99 87 101 107 110 107 109 106 109 106 106 106 107 111 115 109 106 103 107 108 102 103 91 77 75 71 72 70 77 87 92 101 101 107 112 114 112 113 114 117 119 122 125
97 100 104 105 104 105 107 90 100 106 110 117 111 112 114 110 110 109 110 115 111 108 106 106 105 103 99 87 80 74 65 66 70 71 79 93 100 107 109 110 113 115 122 123 126 125 126 132 135
Wind_Direction
292 296 301 300 290 286 282 273 270 275 283 292 289 290 290 290 295 301 301 305 308 306 305 305 297 290 286 283 281 275 268 265 264 267 269 270 271 273 277 282 277 271 265 264 261 259 261 264 265
285 292 299 297 288 287 280 274 269 277 284 288 285 290 293 290 293 294 296 305 303 304 306 306 300 297 295 288 284 281 279 272 268 268 267 270 273 275 276 276 273 266 261 265 267 266 266 267 268
287 284 291 288 287 281 273 276 277 285 283 284 287 294 294 293 296 296 304 304 308 306 318 319 312 304 301 299 289 287 285 281 275 273 272 273 274 271 271 273 269 264 265 267 266 266 268 276 273
288 286 288 283 288 282 282 285 285 285 280 291 296 301 296 298 293 299 306 310 314 314 321 325 322 318 312 302 296 291 286 282 282 276 272 270 270 270 270 268 265 262 261 264 265 272 275 278 273
288 287 288 286 296 288 294 292 287 281 292 299 303 302 300 288 290 292 301 305 318 314 310 318 320 314 312 311 305 294 288 285 282 278 276 272 270 269 269 265 263 261 264 266 266 267 271 273 273
290 291 293 291 299 294 293 287 294 300 295 295 307 297 290 289 295 290 290 300 308 310 312 310 310 305 303 305 302 292 293 287 285 281 279 277 273 273 267 265 265 265 267 270 263 261 266 269 271
286 283 291 294 294 290 283 292 295 308 295 289 291 287 286 284 290 289 298 306 309 310 310 309 311 304 303 301 304 294 286 284 287 286 287 281 273 271 270 268 270 271 273 270 268 260 262 263 266
289 281 283 298 300 307 304 298 304 297 291 290 290 287 282 281 284 295 298 304 306 306 303 305 306 305 293 301 289 285 280 284 281 279 280 283 283 275 270 269 270 272 273 274 270 263 259 260 261
287 300 302 308 300 296 292 291 294 285 276 283 290 281 281 283 286 293 298 305 308 310 308 307 305 300 295 294 283 288 290 281 280 277 274 276 279 284 282 273 270 272 272 272 269 264 257 259 260
284 288 298 297 297 291 291 289 285 287 288 288 290 289 286 292 295 300 307 307 306 305 309 306 301 301 294 288 283 282 290 291 286 284 279 274 276 279 281 277 272 268 270 269 266 264 258 258 258
286 284 282 293 292 293 296 295 294 295 294 296 300 302 304 307 307 307 307 308 307 309 309 308 302 295 290 285 283 280 283 286 286 287 284 277 275 276 277 279 274 274 269 265 264 263 262 259 260
296 295 288 287 289 294 294 292 292 294 298 303 302 302 303 305 307 310 315 318 316 314 311 305 300 297 288 285 286 285 280 282 285 286 284 279 273 272 271 272 272 272 273 271 267 265 260 256 257
311 299 288 284 288 292 292 293 295 297 293 293 299 302 308 317 317 319 322 328 328 326 319 315 306 298 292 285 284 286 284 280 277 282 281 281 276 267 267 265 265 264 261 264 266 267 266 267 264
306 300 291 289 290 292 294 296 294 296 299 306 306 308 313 312 318 325 325 327 328 328 327 318 324 296 304 306 305 298 296 292 285 280 278 275 273 273 269 267 266 265 261 262 262 263 265 266 266
298 295 291 292 292 298 306 303 295 296 299 308 306 305 310 311 323 328 329 331 328 323 323 320 316 327 291 307 310 329 308 299 295 287 282 277 274 273 271 271 269 264 262 263 264 266 264 262 261
283 291 291 289 289 297 302 304 301 300 301 300 300 301 305 310 324 326 328 328 331 325 323 323 322 322 323 324 324 325 321 316 296 284 284 281 281 277 276 275 270 270 267 263 262 261 261 262 263
281 288 292 290 292 301 305 300 298 298 299 299 299 300 305 316 323 325 325 323 327 330 328 326 319 317 317 323 322 326 321 323 306 292 291 280 283 286 287 283 274 272 270 270 267 264 264 263 262
283 286 284 287 294 309 298 294 295 301 296 303 307 311 312 314 317 319 320 319 320 322 324 324 322 318 316 321 322 320 317 322 314 314 311 292 299 290 284 282 279 274 269 266 268 267 266 267 268
281 280 279 285 288 295 302 310 301 304 303 304 310 312 313 310 314 315 312 313 314 316 317 317 318 317 317 319 318 318 313 315 314 312 309 304 295 290 290 288 276 273 273 268 265 265 265 266 267
277 284 286 291 292 298 298 300 306 306 308 311 311 308 313 311 312 315 311 310 309 312 314 313 315 313 310 308 310 311 312 310 310 306 308 311 298 292 300 284 284 273 270 270 268 266 267 266 266
281 282 285 285 289 294 295 300 299 303 309 310 311 310 310 310 310 311 312 308 308 310 311 313 313 311 310 305 308 308 310 311 306 302 302 303 295 287 294 295 286 278 269 269 271 268 267 266 267
287 288 290 287 285 292 290 289 301 305 306 306 309 308 309 307 309 307 306 307 309 309 309 309 308 311 310 305 307 305 307 305 305 298 299 297 289 285 288 286 287 283 273 269 269 269 269 268 269
291 291 292 294 292 297 300 294 293 299 301 302 303 305 307 306 304 306 306 302 304 305 305 306 307 308 304 301 301 304 305 304 304 289 289 291 283 282 288 285 285 279 281 278 271 268 267 267 268
292 290 292 292 297 297 299 300 306 298 300 303 303 302 301 300 301 303 301 301 303 305 304 306 304 303 300 301 300 301 301 292 300 279 281 291 278 278 278 282 278 278 276 274 278 272 268 269 268
296 292 291 289 294 298 294 297 305 301 301 304 302 303 301 299 299 301 303 301 301 304 304 302 302 301 300 299 297 299 298 290 287 271 268 270 271 270 268 275 267 274 270 270 269 271 273 271 271
298 297 295 299 297 297 298 301 300 299 299 302 300 298 298 300 299 300 302 301 302 302 301 299 298 298 295 293 296 296 292 291 286 260 264 262 266 263 269 270 264 268 268 265 265 270 270 272 272
297 295 297 299 297 299 298 297 298 297 300 302 299 302 301 299 301 304 303 301 301 300 298 297 294 293 293 294 295 294 293 287 276 262 256 256 262 264 265 261 260 266 262 260 264 267 267 272 276
297 295 297 294 297 300 299 298 293 291 298 303 304 309 305 304 305 304 301 298 302 303 301 300 298 297 295 294 295 294 286 278 268 262 248 248 254 259 260 262 259 255 256 258 262 265 268 269 273
290 290 293 292 292 297 298 299 292 289 294 303 308 307 310 308 306 307 305 305 305 303 300 298 298 299 298 296 292 285 274 270 266 256 246 247 246 252 253 255 257 259 257 259 259 265 266 269 272
289 289 291 291 291 296 295 299 291 291 298 305 308 312 312 311 309 305 303 301 302 300 300 300 300 298 296 292 288 285 277 268 259 251 242 242 245 245 251 253 256 258 259 258 261 264 270 271 274
Height
10815 10813 10811 10809 10806 10806 10803 10804 10802 10803 10799 10798 10796 10795 10795 10794 10792 10788 10785 10781 10777 10773 10772 10771 10768 10767 10766 10766 10765 10763 10764 10764 10765 10765 10765 10764 10766 10767 10766 10766 10766 10766 10765 10764 10764 10766 10765 10764 10762
10809 10807 10805 10804 10800 10800 10800 10799 10797 10796 10794 10791 10790 10790 10789 10787 10785 10782 10780 10775 10769 10765 10764 10764 10761 10759 10759 10759 10758 10757 10756 10756 10756 10756 10756 10756 10758 10758 10756 10757 10757 10758 10758 10757 10757 10757 10757 10754 10753
10802 10801 10799 10799 10795 10795 10794 10793 10791 10789 10790 10787 10785 10784 10783 10781 10780 10778 10774 10770 10766 10763 10758 10757 10756 10754 10752 10752 10752 10750 10749 10749 10748 10748 10748 10749 10748 10747 10747 10748 10749 10750 10750 10749 10750 10749 10748 10747 10745
10796 10794 10793 10792 10791 10789 10788 10786 10785 10783 10783 10783 10780 10780 10778 10776 10775 10773 10770 10766 10763 10761 10756 10753 10752 10750 10750 10749 10746 10744 10742 10742 10741 10741 10741 10740 10739 10738 10739 10740 10741 10742 10742 10742 10742 10741 10741 10739 10737
10789 10788 10787 10786 10788 10785 10784 10782 10780 10778 10777 10777 10777 10775 10772 10770 10769 10767 10764 10760 10757 10755 10752 10749 10746 10745 10745 10744 10741 10739 10737 10736 10734 10733 10732 10731 10730 10729 10730 10731 10732 10733 10733 10733 10734 10734 10734 10732 10731
10784 10783 10783 10781 10782 10781 10779 10777 10776 10774 10772 10771 10770 10768 10767 10764 10763 10763 10761 10759 10756 10752 10749 10745 10742 10739 10737 10735 10733 10731 10729 10727 10727 10726 10724 10723 10721 10721 10722 10723 10723 10724 10724 10724 10724 10725 10726 10725 10724
10779 10778 10778 10776 10776 10777 10774 10772 10770 10768 10766 10764 10763 10762 10761 10759 10757 10755 10754 10751 10747 10744 10743 10740 10737 10733 10728 10726 10723 10721 10720 10718 10717 10717 10716 10715 10713 10713 10713 10714 10715 10715 10715 10715 10715 10716 10717 10717 10717
10775 10773 10772 10771 10772 10771 10769 10767 10766 10764 10762 10760 10757 10754 10754 10751 10750 10747 10745 10743 10740 10737 10734 10731 10728 10725 10722 10718 10715 10711 10708 10708 10708 10708 10706 10705 10703 10703 10703 10704 10704 10704 10705 10706 10706 10707 10707 10708 10708
10769 10769 10768 10766 10766 10766 10765 10762 10760 10758 10756 10755 10751 10748 10747 10746 10743 10740 10737 10734 10731 10728 10725 10721 10718 10713 10711 10708 10704 10702 10699 10698 10697 10696 10696 10695 10694 10693 10692 10692 10693 10694 10695 10695 10695 10696 10697 10698 10699
10764 10764 10763 10762 10761 10759 10759 10757 10754 10751 10749 10747 10744 10742 10740 10738 10736 10732 10729 10725 10722 10720 10718 10712 10706 10703 10699 10697 10695 10692 10690 10689 10688 10686 10684 10684 10684 10684 10681 10680 10682 10682 10683 10684 10685 10685 10686 10687 10688
10759 10759 10758 10757 10755 10753 10751 10750 10748 10746 10743 10741 10738 10734 10732 10729 10726 10723 10720 10716 10713 10708 10703 10699 10695 10691 10688 10685 10683 10681 10678 10676 10676 10675 10674 10674 10674 10674 10671 10670 10671 10673 10673 10674 10674 10675 10676 10677 10678
10754 10753 10753 10752 10750 10748 10745 10744 10743 10740 10737 10734 10732 10728 10725 10721 10719 10716 10712 10706 10702 10698 10692 10689 10685 10682 10678 10675 10673 10670 10668 10665 10663 10663 10662 10661 10662 10663 10660 10658 10659 10662 10663 10663 10663 10663 10664 10665 10667
10750 10749 10748 10747 10745 10743 10741 10738 10736 10735 10732 10728 10726 10723 10720 10716 10711 10707 10702 10697 10693 10688 10684 10680 10675 10671 10667 10664 10662 10660 10657 10655 10652 10650 10650 10651 10650 10650 10648 10647 10648 10649 10651 10652 10653 10652 10652 10655 10657
10744 10743 10744 10743 10741 10739 10737 10734 10730 10727 10724 10721 10717 10714 10712 10708 10703 10699 10694 10689 10683 10679 10676 10672 10667 10663 10659 10656 10653 10649 10646 10642 10639 10638 10637 10638 10637 10636 10635 10634 10635 10636 10638 10639 10640 10640 10640 10641 10642
10740 10738 10737 10738 10737 10737 10733 10729 10725 10722 10718 10714 10709 10705 10702 10698 10694 10689 10684 10681 10676 10670 10666 10663 10659 10655 10653 10648 10644 10640 10635 10631 10629 10625 10624 10624 10622 10621 10618 10618 10618 10618 10620 10622 10624 10625 10626 10626 10626
10735 10733 10730 10730 10730 10731 10726 10721 10718 10715 10711 10706 10701 10697 10693 10688 10684 10680 10674 10669 10664 10659 10654 10651 10648 10645 10641 10638 10633 10630 10625 10621 10616 10613 10611 10608 10605 10604 10603 10602 10600 10600 10601 10602 10605 10607 10608 10609 10609
10726 10726 10724 10718 10721 10722 10720 10716 10710 10708 10703 10696 10693 10690 10685 10680 10674 10669 10664 10659 10656 10650 10642 10637 10633 10631 10628 10624 10620 10617 10613 10609 10606 10604 10599 10593 10591 10588 10586 10585 10583 10584 10583 10583 10585 10587 10589 10589 10590
10719 10718 10716 10712 10711 10713 10710 10709 10704 10699 10696 10691 10684 10681 10677 10672 10665 10660 10654 10648 10644 10638 10631 10624 10620 10616 10613 10608 10605 10603 10600 10596 10593 10589 10585 10581 10577 10573 10570 10566 10565 10563 10564 10564 10565 10567 10567 10567 10568
10709 10708 10706 10703 10701 10705 10700 10700 10695 10687 10684 10679 10676 10672 10668 10662 10655 10650 10643 10636 10631 10625 10619 10612 10607 10598 10594 10591 10589 10586 10583 10580 10576 10572 10567 10563 10560 10557 10554 10550 10547 10544 10542 10543 10545 10546 10546 10546 10547
10699 10699 10695 10696 10692 10693 10692 10693 10685 10675 10670 10664 10661 10659 10655 10649 10643 10637 10630 10624 10617 10611 10605 10599 10594 10588 10581 10574 10570 10567 10563 10560 10558 10554 10549 10546 10540 10536 10533 10530 10527 10525 10523 10523 10524 10525 10526 10528 10528
10687 10686 10685 10685 10681 10680 10681 10685 10677 10665 10656 10647 10646 10642 10639 10635 10629 10622 10616 10610 10603 10596 10588 10581 10576 10572 10567 10560 10554 10550 10544 10540 10537 10533 10529 10527 10522 10517 10515 10510 10507 10504 10502 10502 10502 10504 10505 10507 10506
10678 10674 10674 10672 10670 10669 10666 10670 10666 10660 10648 10632 10626 10623 10621 10617 10613 10605 10598 10592 10585 10576 10569 10561 10556 10551 10546 10540 10538 10535 10530 10524 10518 10510 10507 10504 10501 10498 10495 10493 10491 10487 10485 10486 10485 10485 10485 10486 10483
10665 10662 10660 10658 10656 10657 10652 10647 10653 10645 10639 10631 10622 10613 10603 10598 10590 10584 10579 10571 10565 10558 10550 10542 10534 10530 10524 10521 10519 10515 10511 10503 10491 10484 10484 10484 10481 10477 10472 10469 10468 10469 10463 10463 10466 10465 10464 10464 10464
10649 10645 10643 10643 10639 10642 10634 10628 10642 10625 10617 10610 10606 10600 10593 10585 10578 10570 10560 10551 10542 10534 10528 10522 10515 10507 10502 10499 10497 10495 10494 10472 10481 10468 10458 10458 10460 10461 10455 10450 10449 10447 10446 10442 10443 10445 10444 10443 10443
10630 10627 10625 10627 10622 10623 10619 10614 10614 10606 10597 10592 10588 10583 10574 10565 10557 10550 10543 10535 10526 10519 10512 10500 10491 10485 10480 10478 10474 10471 10472 10470 10462 10458 10451 10449 10443 10441 10437 10433 10433 10427 10425 10422 10420 10419 10419 10419 10417
10614 10607 10602 10603 10604 10605 10599 10596 10591 10583 10576 10570 10565 10560 10551 10544 10535 10526 10517 10507 10499 10492 10486 10481 10473 10463 10458 10453 10445 10441 10436 10427 10433 10428 10422 10423 10422 10416 10413 10411 10410 10407 10404 10403 10399 10397 10393 10391 10391
10597 10589 10581 10576 10579 10580 10584 10577 10567 10558 10551 10546 10539 10533 10525 10517 10508 10498 10489 10480 10473 10470 10465 10457 10448 10439 10427 10419 10408 10401 10394 10393 10392 10396 10396 10396 10398 10396 10394 10391 10389 10388 10382 10380 10377 10374 10371 10371 10366
10581 10574 10564 10553 10551 10551 10564 10561 10541 10533 10523 10518 10514 10508 10500 10491 10481 10470 10462 10457 10450 10441 10431 10423 10410 10399 10385 10381 10374 10366 10355 10356 10359 10361 10368 10371 10375 10375 10374 10373 10368 10365 10362 10359 10355 10353 10351 10346 10343
10563 10554 10544 10533 10526 10519 10526 10547 10517 10508 10499 10493 10486 10478 10470 10461 10454 10445 10430 10419 10415 10405 10397 10387 10375 10361 10350 10338 10334 10330 10324 10323 10325 10328 10335 10344 10347 10347 10346 10345 10345 10343 10338 10335 10334 10332 10330 10325 10323
10543 10536 10524 10511 10506 10498 10487 10522 10492 10477 10472 10465 10458 10446 10436 10429 10426 10419 10408 10397 10383 10371 10361 10351 10341 10327 10315 10304 10297 10297 10295 10294 10296 10297 10307 10315 10317 10317 10318 10318 10319 10318 10313 10314 10310 10311 10309 10304 10304